Погода в Посёлке Панозеро

Россия / Республика Карелия     64°58′22″N   32°51′44″E
темп.,
°C
ветер,
м/с
пор.,
м/с
влажн.,
%
обл.,
%
осадки,
мм/ч
давл.,
гПа
погр.,
м
8 марта, пн
пн800:00−19св389791 0.0 1010257
03:00−22ссв389781 0.0 1013205
06:00−24ссв369824 0.0 1014134
09:00−24ссв259739 0.0 1015180
12:00−19ссв249265 0.0 1017332
15:00−18ссв248978 0.0 1018426
18:00−21св2296100 0.0 101920
21:00−25всв129793 0.0 102020
9 марта, вт
вт900:00−27всв019549 0.0 102119
03:00−27сз119360 0.0 102219
06:00−27з129126 0.0 102219
09:00−25зюз239013 0.0 102283
12:00−19з35840 0.0 1023241
15:00−15з358615 0.0 1023351
18:00−16сз229428 0.0 102420
21:00−19сз229414 0.0 102520
10 марта, ср
ср1000:00−19з23862 0.0 102633
03:00−19зсз238236 0.0 102640
06:00−18зсз238391 0.0 102665
09:00−18з358276 0.0 1027127
12:00−13з35791 0.0 1027252
15:00−10з37811 0.0 1026351
18:00−12юз34913 0.0 102689
21:00−16зюз38939 0.0 1025152
11 марта, чт
чт1100:00−17юз38940 0.0 1025176
03:00−18юз410880 0.0 1023259
06:00−18юз412870 0.0 1022318
09:00−15юз514800 0.0 1020472
12:00−11юз613700 0.0 1018672
15:00−9юз613690 0.0 1016869
18:00−10ююз413790 0.0 1013758
21:00−12ююз514830 0.0 1011616
12 марта, пт
пт1200:00−13ююз5158848 0.0 1009555
03:00−13ю5169071 0.0 1006546
06:00−12ю51591100 0.0 1004546
09:00−12ю61490100 0.1 1002575
12:00−9ю61387100 0.0 1000679
15:00−8ю61287100 0.1 998788
18:00−8ю51289100 0.1 996878
21:00−7ю51393100 0.1 994836